Skip Page Navigation
NASA JPL Caltech
NASA Logo - Jet Propulsion Laboratory + View the NASA Portal
+ Center for Near-Earth Object Studies
JPL Home Earth Solar System Stars & Galaxies Technology
JPL Solar System Dynamics
BODIES ORBITS EPHEMERIDES TOOLS PHYSICAL DATA DISCOVERY FAQ SITE MAP
IMPORTANT: The SSD Announcement email list is now available. Major changes are coming in the near future, including possible hostname and/or URL changes. To be notified of such changes, subscribe to this email list.

Please visit this page for more details.


JPL Small-Body Database Browser
Search: [ help ]  
5698 Nolde (4121 T-1)
Classification: Main-belt Asteroid          SPK-ID: 2005698
Ephemeris | Orbit Diagram | Orbital Elements | Mission Design | Physical Parameters | Discovery Circumstances | Close-Approach Data ]

[ show orbit diagram ]
Orbital Elements at Epoch 2459000.5 (2020-May-31.0) TDB
Reference: JPL 37 (heliocentric ecliptic J2000)
 Element Value Uncertainty (1-sigma)   Units 
e .1113538855109755 3.0068e-08  
a 3.120055770787672 1.4427e-08 au
q 2.772625437699523 9.5441e-08 au
i 1.552924195498899 3.4173e-06 deg
node 74.11219453288491 0.00014536 deg
peri 157.783556180476 0.00014645 deg
M 308.3857084006881 1.8756e-05 deg
tp 2459289.108709427017
(2021-Mar-15.60870943)
0.00010531 TDB
period 2012.991599309504
5.51
1.3962e-05
3.823e-08
d
yr
n .1788383022181946 1.2404e-09 deg/d
Q 3.467486103875821 1.6033e-08 au
  Orbit Determination Parameters
   # obs. used (total)      2548  
   data-arc span      17933 days (49.10 yr)  
   first obs. used      1971-03-24  
   last obs. used      2020-04-28  
   planetary ephem.      DE431  
   SB-pert. ephem.      SB431-N16  
   condition code      0  
   norm. resid. RMS      .47222  
   source      ORB  
   producer      Otto Matic  
   solution date      2020-May-20 02:24:41  

Additional Information
 Earth MOID = 1.7619 au 
 Jupiter MOID = 1.5216 au 
 T_jup = 3.206 
[ hide covariance matrix ]
Orbital Elements at Epoch 2456499.5 (2013-Jul-26.0) TDB
Reference: JPL 37 (heliocentric ecliptic J2000)
 Element Value Uncertainty (1-sigma)   Units 
e .1131802618131162 3.0566e-08  
q 2.772633500685551 9.766e-08 au
tp 2457263.361179445331
(2015-Aug-28.86117945)
9.9981e-05 TDB
node 74.22081924613717 0.00014453 deg
peri 155.5590667310073 0.00014555 deg
i 1.556949380672183 3.4249e-06 deg
  Orbit Determination Parameters
   # obs. used (total)      2548  
   data-arc span      17933 days (49.10 yr)  
   first obs. used      1971-03-24  
   last obs. used      2020-04-28  
   planetary ephem.      DE431  
   SB-pert. ephem.      SB431-N16  
   condition code      0  
   norm. resid. RMS      .47222  
   source      ORB  
   producer      Otto Matic  
   solution date      2020-May-20 02:24:41  

Additional Information
 Jupiter MOID = 1.5216 au 
 T_jup = 3.206 
Orbit Covariance (6×6)
  e q tp node peri i
e 9.342695824222305E-16 -2.958762887627475E-15 -4.050457027355727E-13 -2.644164987826687E-15 -5.381654577462347E-14 -9.322964239369396E-17
q -2.958762887627475E-15 9.537511298978761E-15 1.53398806886493E-12 1.626746934328335E-14 1.953477112206176E-13 3.484571060676908E-16
tp -4.050457027355727E-13 1.53398806886493E-12 9.996210620187207E-9 -1.500965004183395E-12 1.743871468800738E-9 2.950520233141362E-13
node -2.644164987826687E-15 1.626746934328335E-14 -1.500965004183395E-12 2.088865922945744E-8 -2.088111544879253E-8 2.194212599831194E-11
peri -5.381654577462347E-14 1.953477112206176E-13 1.743871468800738E-9 -2.088111544879253E-8 2.118490497022338E-8 -2.188688965673857E-11
i -9.322964239369396E-17 3.484571060676908E-16 2.950520233141362E-13 2.194212599831194E-11 -2.188688965673857E-11 1.172987522328752E-11

Ephemeris | Orbit Diagram | Orbital Elements | Mission Design | Physical Parameters | Discovery Circumstances | Close-Approach Data ]

Physical Parameter Table
Parameter Symbol Value Units Sigma Reference Notes
absolute magnitude H 12.7   n/a MPO502208  
diameter diameter 16.690 km 0.097 urn:nasa:pds:neowise_diameters_albedos::2.0[mainbelt] (http://adsabs.harvard.edu/abs/2011ApJ...741...68M)  
geometric albedo albedo 0.048   0.008 urn:nasa:pds:neowise_diameters_albedos::2.0[mainbelt] (http://adsabs.harvard.edu/abs/2012ApJ...759L...8M)  

5698 Nolde (4121 T-1)          Discovered 1971-Mar-26 by van Houten and Gehrels at Palomar
Reference: DISCOVERY.DBLast Updated: 2003-08-29

[ show close-approach data ]
Alternate Designations
 4121 T-1 = 1977 KP1 = 1978 RT8 = 1985 YX1 = 1990 WA3 
Ephemeris | Orbit Diagram | Orbital Elements | Mission Design | Physical Parameters | Discovery Circumstances | Close-Approach Data ]
ABOUT SSD CREDITS/AWARDS PRIVACY/COPYRIGHT GLOSSARY LINKS
FirstGov 2020-Jun-02 06:31 UT
(server date/time)  
NASA Home Page
Site Manager:   Ryan S. Park
Webmaster  Alan B. Chamberlin